Location: Fort Wayne
(41.1310°N, 85.1290°W)
Time: 18:44:04
(UTC-05:00)

BREEZE-M DEB (TANK) - Visible Passes

Search period start: 22 November 2014 00:00
Search period end: 02 December 2014 00:00
Orbit: 285 x 13619 km, 49.6° (Epoch: 21 November)

Date Brightness Start Highest point End Pass type
(mag) Time Alt. Az. Time Alt. Az. Time Alt. Az.
22 Nov 5.2 06:20:25 17° NW 06:26:30 74° NNE 07:02:52 10° ESE visible
23 Nov 5.4 03:36:52 28° NE 03:36:52 28° NE 03:43:54 10° ENE visible
24 Nov 4.4 05:08:32 41° NNW 05:10:48 55° NNE 05:32:57 10° E visible
25 Nov 5.4 06:40:10 13° WNW 06:47:30 89° NNE 07:30:15 10° SE visible
26 Nov 5.1 03:56:29 37° NE 03:56:29 37° NE 04:07:34 10° E visible
27 Nov 4.6 05:28:01 36° NW 05:31:21 67° NNE 05:59:19 10° ESE visible
28 Nov 6.3 02:44:15 15° ENE 02:44:15 15° ENE 02:46:17 10° ENE visible
28 Nov 5.6 06:59:36 10° WNW 07:08:10 77° SW 07:55:47 10° SE visible
29 Nov 4.7 04:15:41 47° NNE 04:15:41 47° NNE 04:31:41 10° E visible
30 Nov 4.8 05:47:04 31° NW 05:51:26 81° NNE 06:25:13 10° ESE visible
01 Dec 6.0 03:03:11 22° ENE 03:03:11 22° ENE 03:08:14 10° ENE visible
